This is the latest recevied weather packets stored in our database for station/object SV9TNF-55. If no packets are shown the sender has not sent any weather packets the latest 10 day(s).
| Time | Temp. | Humidity | Pressure | Rain* | Wind** | Luminosity | Snow |
|---|---|---|---|---|---|---|---|
| 1787871289 | 22.78° C | 54% | 1015.3 hPa | 0 mm | 3.58 m/s, 292° | - | - |
| 1787870691 | 22.78° C | 52% | 1015.4 hPa | 0 mm | 4.92 m/s, 270° | - | - |
| 1787870089 | 22.78° C | 53% | 1015.5 hPa | 0 mm | 4.92 m/s, 292° | - | - |
| 1787869489 | 22.78° C | 51% | 1015.3 hPa | 0 mm | 4.92 m/s, 270° | - | - |
| 1787868889 | 23.33° C | 52% | 1015.5 hPa | 0 mm | 6.26 m/s, 270° | - | - |
| 1787868289 | 23.33° C | 52% | 1015.3 hPa | 0 mm | 5.81 m/s, 292° | - | - |
| 1787867689 | 23.33° C | 51% | 1015.4 hPa | 0 mm | 4.92 m/s, 270° | - | - |
| 1787867089 | 23.33° C | 51% | 1015.3 hPa | 0 mm | 5.36 m/s, 292° | - | - |
| 1787866490 | 22.78° C | 51% | 1015.4 hPa | 0 mm | 4.92 m/s, 292° | - | - |
| 1787865889 | 22.78° C | 51% | 1015.4 hPa | 0 mm | 5.36 m/s, 292° | - | - |
| 1787865290 | 22.78° C | 51% | 1015.5 hPa | 0 mm | 3.58 m/s, 270° | - | - |
| 1787864689 | 22.78° C | 52% | 1015.5 hPa | 0 mm | 3.13 m/s, 270° | - | - |
| 1787864088 | 22.78° C | 51% | 1015.7 hPa | 0 mm | 4.02 m/s, 292° | - | - |
| 1787863489 | 23.33° C | 49% | 1015.5 hPa | 0 mm | 3.58 m/s, 270° | - | - |
| 1787862889 | 23.33° C | 48% | 1015.6 hPa | 0 mm | 3.58 m/s, 292° | - | - |
| 1787862288 | 22.78° C | 46% | 1015.6 hPa | 0 mm | 2.24 m/s, 292° | - | - |
| 1787861688 | 22.78° C | 46% | 1015.6 hPa | 0 mm | 3.13 m/s, 270° | - | - |
| 1787861088 | 22.78° C | 46% | 1015.7 hPa | 0 mm | 1.34 m/s, 292° | - | - |
| 1787860488 | 22.78° C | 47% | 1015.6 hPa | 0 mm | 2.24 m/s, 270° | - | - |
| 1787859889 | 23.33° C | 46% | 1015.6 hPa | 0 mm | 2.68 m/s, 270° | - | - |
| 1787859288 | 23.89° C | 42% | 1015.6 hPa | 0 mm | 2.68 m/s, 270° | - | - |
| 1787858687 | 24.44° C | 41% | 1015.4 hPa | 0 mm | 3.13 m/s, 292° | - | - |
| 1787858088 | 24.44° C | 39% | 1015.5 hPa | 0 mm | 3.13 m/s, 270° | - | - |
| 1787857488 | 24.44° C | 39% | 1015.4 hPa | 0 mm | 2.24 m/s, 292° | - | - |
| 1787856887 | 23.89° C | 41% | 1015.5 hPa | 0 mm | 2.24 m/s, 292° | - | - |
* Rain latest hour (hover to see other rain measurements)
** Current wind speed in m/s (hover to see current wind gust speed)